Wetterdaten: Freitag, 13.08.2010
Datum Zeit Temp. A. Feuchte A. Luftdruck Regen Wind Richtung Richtung Sonnenschein UV Solar Windben
13.08.2010 00:00 16,0 C 78 % 1014,4 hPa 0,0 mm 0,0 km/h (0 Bft) W-SW 247 0 min 0 UV-I 0 W/m 1,6 km/h (1 Bft)
13.08.2010 00:10 15,8 C 78 % 1014,3 hPa 0,0 mm 0,0 km/h (0 Bft) W-SW 247 0 min 0 UV-I 0 W/m 3,2 km/h (1 Bft)
13.08.2010 00:20 15,7 C 77 % 1014,3 hPa 0,0 mm 0,0 km/h (0 Bft) W-SW 247 0 min 0 UV-I 0 W/m 3,2 km/h (1 Bft)
13.08.2010 00:30 15,7 C 78 % 1014,4 hPa 0,0 mm 0,0 km/h (0 Bft) W-SW 247 0 min 0 UV-I 0 W/m 1,6 km/h (1 Bft)
13.08.2010 00:40 15,6 C 78 % 1014,5 hPa 0,0 mm 0,0 km/h (0 Bft) W-SW 247 0 min 0 UV-I 0 W/m 4,8 km/h (1 Bft)
13.08.2010 00:50 15,5 C 78 % 1014,6 hPa 0,0 mm 0,0 km/h (0 Bft) W-SW 247 0 min 0 UV-I 0 W/m 1,6 km/h (1 Bft)
13.08.2010 01:00 15,4 C 79 % 1014,5 hPa 0,0 mm 0,0 km/h (0 Bft) W-SW 247 0 min 0 UV-I 0 W/m 1,6 km/h (1 Bft)
13.08.2010 01:10 15,4 C 79 % 1014,5 hPa 0,0 mm 0,0 km/h (0 Bft) W-SW 247 0 min 0 UV-I 0 W/m 1,6 km/h (1 Bft)
13.08.2010 01:20 15,6 C 79 % 1014,7 hPa 0,0 mm 0,0 km/h (0 Bft) W-SW 247 0 min 0 UV-I 0 W/m 3,2 km/h (1 Bft)
13.08.2010 01:30 15,6 C 79 % 1014,6 hPa 0,0 mm 0,0 km/h (0 Bft) W-SW 247 0 min 0 UV-I 0 W/m 6,4 km/h (2 Bft)
13.08.2010 01:40 15,6 C 79 % 1014,8 hPa 0,0 mm 0,0 km/h (0 Bft) W-SW 247 0 min 0 UV-I 0 W/m 4,8 km/h (1 Bft)
13.08.2010 01:50 15,7 C 79 % 1014,9 hPa 0,0 mm 0,0 km/h (0 Bft) S-SW 202 0 min 0 UV-I 0 W/m 1,6 km/h (1 Bft)
13.08.2010 02:00 15,7 C 79 % 1014,9 hPa 0,0 mm 0,0 km/h (0 Bft) S-SW 202 0 min 0 UV-I 0 W/m 1,6 km/h (1 Bft)
13.08.2010 02:10 15,8 C 79 % 1014,9 hPa 0,0 mm 0,0 km/h (0 Bft) S-SW 202 0 min 0 UV-I 0 W/m 1,6 km/h (1 Bft)
13.08.2010 02:20 15,8 C 79 % 1014,8 hPa 0,0 mm 0,0 km/h (0 Bft) S-SW 202 0 min 0 UV-I 0 W/m 3,2 km/h (1 Bft)
13.08.2010 02:30 15,8 C 79 % 1014,9 hPa 0,0 mm 0,0 km/h (0 Bft) S-SW 202 0 min 0 UV-I 0 W/m 1,6 km/h (1 Bft)
13.08.2010 02:40 15,8 C 79 % 1014,7 hPa 0,0 mm 0,0 km/h (0 Bft) S-SW 202 0 min 0 UV-I 0 W/m 1,6 km/h (1 Bft)
13.08.2010 02:50 15,8 C 80 % 1014,8 hPa 0,0 mm 0,0 km/h (0 Bft) S-SW 202 0 min 0 UV-I 0 W/m 1,6 km/h (1 Bft)
13.08.2010 03:00 15,8 C 80 % 1014,7 hPa 0,0 mm 0,0 km/h (0 Bft) S-SW 202 0 min 0 UV-I 0 W/m 1,6 km/h (1 Bft)
13.08.2010 03:10 15,7 C 80 % 1014,7 hPa 0,0 mm 0,0 km/h (0 Bft) S-SW 202 0 min 0 UV-I 0 W/m 1,6 km/h (1 Bft)
13.08.2010 03:20 15,7 C 80 % 1014,8 hPa 0,0 mm 0,0 km/h (0 Bft) S-SW 202 0 min 0 UV-I 0 W/m 3,2 km/h (1 Bft)
13.08.2010 03:30 15,7 C 80 % 1014,8 hPa 0,0 mm 0,0 km/h (0 Bft) SW 225 0 min 0 UV-I 0 W/m 3,2 km/h (1 Bft)
13.08.2010 03:40 15,7 C 80 % 1015,0 hPa 0,0 mm 0,0 km/h (0 Bft) SW 225 0 min 0 UV-I 0 W/m 4,8 km/h (1 Bft)
13.08.2010 03:50 15,7 C 80 % 1015,0 hPa 0,0 mm 1,6 km/h (1 Bft) SW 225 0 min 0 UV-I 0 W/m 4,8 km/h (1 Bft)
13.08.2010 04:00 15,7 C 80 % 1015,0 hPa 0,0 mm 1,6 km/h (1 Bft) W-SW 247 0 min 0 UV-I 0 W/m 6,4 km/h (2 Bft)
13.08.2010 04:10 15,7 C 80 % 1015,1 hPa 0,0 mm 1,6 km/h (1 Bft) W 270 0 min 0 UV-I 0 W/m 6,4 km/h (2 Bft)
13.08.2010 04:20 15,7 C 81 % 1015,1 hPa 0,0 mm 1,6 km/h (1 Bft) W 270 0 min 0 UV-I 0 W/m 8,0 km/h (2 Bft)
13.08.2010 04:30 15,6 C 81 % 1015,1 hPa 0,0 mm 3,2 km/h (1 Bft) W 270 0 min 0 UV-I 0 W/m 9,7 km/h (2 Bft)
13.08.2010 04:40 15,6 C 81 % 1015,1 hPa 0,0 mm 3,2 km/h (1 Bft) W 270 0 min 0 UV-I 0 W/m 8,0 km/h (2 Bft)
13.08.2010 04:50 15,5 C 81 % 1015,1 hPa 0,0 mm 1,6 km/h (1 Bft) W-SW 247 0 min 0 UV-I 0 W/m 8,0 km/h (2 Bft)
13.08.2010 05:00 15,4 C 82 % 1015,0 hPa 0,0 mm 1,6 km/h (1 Bft) W 270 0 min 0 UV-I 0 W/m 6,4 km/h (2 Bft)
13.08.2010 05:10 15,4 C 82 % 1015,0 hPa 0,0 mm 1,6 km/h (1 Bft) W 270 0 min 0 UV-I 0 W/m 9,7 km/h (2 Bft)
13.08.2010 05:20 15,3 C 82 % 1015,0 hPa 0,0 mm 1,6 km/h (1 Bft) W 270 0 min 0 UV-I 0 W/m 8,0 km/h (2 Bft)
13.08.2010 05:30 15,2 C 82 % 1015,0 hPa 0,0 mm 0,0 km/h (0 Bft) W-NW 292 0 min 0 UV-I 0 W/m 6,4 km/h (2 Bft)
13.08.2010 05:40 15,1 C 83 % 1015,2 hPa 0,0 mm 0,0 km/h (0 Bft) W-NW 292 0 min 0 UV-I 0 W/m 3,2 km/h (1 Bft)
13.08.2010 05:50 15,1 C 83 % 1015,2 hPa 0,0 mm 1,6 km/h (1 Bft) W-NW 292 0 min 0 UV-I 0 W/m 4,8 km/h (1 Bft)
13.08.2010 06:00 15,1 C 83 % 1015,2 hPa 0,0 mm 0,0 km/h (0 Bft) W-NW 292 0 min 0 UV-I 0 W/m 3,2 km/h (1 Bft)
13.08.2010 06:10 15,1 C 84 % 1015,2 hPa 0,0 mm 0,0 km/h (0 Bft) W-NW 292 0 min 0 UV-I 0 W/m 3,2 km/h (1 Bft)
13.08.2010 06:20 14,9 C 84 % 1015,3 hPa 0,0 mm 1,6 km/h (1 Bft) W 270 0 min 0 UV-I 0 W/m 6,4 km/h (2 Bft)
13.08.2010 06:30 14,7 C 85 % 1015,3 hPa 0,0 mm 0,0 km/h (0 Bft) W 270 0 min 0 UV-I 5 W/m 1,6 km/h (1 Bft)
13.08.2010 06:40 14,7 C 85 % 1015,4 hPa 0,0 mm 0,0 km/h (0 Bft) O-NO 67 0 min 0 UV-I 11 W/m 1,6 km/h (1 Bft)
13.08.2010 06:50 14,6 C 85 % 1015,4 hPa 0,0 mm 0,0 km/h (0 Bft) O 90 0 min 0 UV-I 19 W/m 1,6 km/h (1 Bft)
13.08.2010 07:00 14,6 C 85 % 1015,4 hPa 0,0 mm 0,0 km/h (0 Bft) O 90 0 min 0 UV-I 26 W/m 1,6 km/h (1 Bft)
13.08.2010 07:10 14,6 C 86 % 1015,6 hPa 0,0 mm 0,0 km/h (0 Bft) O 90 0 min 0 UV-I 30 W/m 3,2 km/h (1 Bft)
13.08.2010 07:20 14,4 C 86 % 1015,8 hPa 0,0 mm 0,0 km/h (0 Bft) O 90 0 min 0 UV-I 30 W/m 3,2 km/h (1 Bft)
13.08.2010 07:30 14,3 C 86 % 1015,6 hPa 0,0 mm 0,0 km/h (0 Bft) O 90 0 min 0 UV-I 33 W/m 1,6 km/h (1 Bft)
13.08.2010 07:40 14,2 C 87 % 1015,6 hPa 0,0 mm 0,0 km/h (0 Bft) O 90 0 min 1 UV-I 84 W/m 1,6 km/h (1 Bft)
13.08.2010 07:50 14,3 C 87 % 1015,7 hPa 0,0 mm 0,0 km/h (0 Bft) O 90 10 min 1 UV-I 151 W/m 1,6 km/h (1 Bft)
13.08.2010 08:00 14,9 C 86 % 1015,8 hPa 0,0 mm 0,1 km/h (0 Bft) O 94 10 min 1 UV-I 204 W/m 1,6 km/h (1 Bft)
13.08.2010 08:10 15,1 C 84 % 1015,9 hPa 0,0 mm 0,0 km/h (0 Bft) O 90 10 min 1 UV-I 255 W/m 3,2 km/h (1 Bft)
13.08.2010 08:20 15,5 C 80 % 1015,9 hPa 0,0 mm 0,0 km/h (0 Bft) O 90 10 min 1 UV-I 285 W/m 1,6 km/h (1 Bft)
13.08.2010 08:30 15,7 C 81 % 1015,9 hPa 0,0 mm 0,0 km/h (0 Bft) O-SO 112 10 min 1 UV-I 306 W/m 4,8 km/h (1 Bft)
13.08.2010 08:40 16,1 C 79 % 1016,1 hPa 0,0 mm 0,0 km/h (0 Bft) O-SO 112 10 min 1 UV-I 346 W/m 3,2 km/h (1 Bft)
13.08.2010 08:50 16,3 C 79 % 1016,2 hPa 0,0 mm 0,0 km/h (0 Bft) O-SO 112 10 min 1 UV-I 348 W/m 3,2 km/h (1 Bft)
13.08.2010 09:00 16,9 C 76 % 1016,1 hPa 0,0 mm 0,0 km/h (0 Bft) O-SO 112 10 min 1 UV-I 406 W/m 3,2 km/h (1 Bft)
13.08.2010 09:10 16,8 C 76 % 1016,2 hPa 0,0 mm 0,0 km/h (0 Bft) O-SO 112 10 min 2 UV-I 401 W/m 4,8 km/h (1 Bft)
13.08.2010 09:20 16,7 C 76 % 1016,2 hPa 0,0 mm 1,6 km/h (1 Bft) SO 135 10 min 2 UV-I 360 W/m 6,4 km/h (2 Bft)
13.08.2010 09:30 16,8 C 76 % 1016,1 hPa 0,0 mm 1,6 km/h (1 Bft) S-SW 202 10 min 2 UV-I 352 W/m 6,4 km/h (2 Bft)
13.08.2010 09:40 17,1 C 75 % 1016,0 hPa 0,0 mm 1,6 km/h (1 Bft) SW 225 10 min 2 UV-I 594 W/m 6,4 km/h (2 Bft)
13.08.2010 09:50 17,3 C 76 % 1016,2 hPa 0,0 mm 1,6 km/h (1 Bft) SW 225 10 min 2 UV-I 492 W/m 4,8 km/h (1 Bft)
13.08.2010 10:00 17,4 C 74 % 1016,2 hPa 0,0 mm 0,0 km/h (0 Bft) SW 225 10 min 3 UV-I 445 W/m 4,8 km/h (1 Bft)
13.08.2010 10:10 17,7 C 73 % 1016,3 hPa 0,0 mm 1,6 km/h (1 Bft) SW 225 10 min 3 UV-I 633 W/m 8,0 km/h (2 Bft)
13.08.2010 10:20 17,9 C 72 % 1016,2 hPa 0,0 mm 3,2 km/h (1 Bft) W-SW 247 10 min 3 UV-I 652 W/m 9,7 km/h (2 Bft)
13.08.2010 10:30 17,8 C 72 % 1016,4 hPa 0,0 mm 0,0 km/h (0 Bft) W-SW 247 10 min 3 UV-I 364 W/m 4,8 km/h (1 Bft)
13.08.2010 10:40 17,8 C 71 % 1016,5 hPa 0,0 mm 0,0 km/h (0 Bft) W-SW 247 10 min 3 UV-I 439 W/m 4,8 km/h (1 Bft)
13.08.2010 10:50 18,3 C 73 % 1016,5 hPa 0,0 mm 0,0 km/h (0 Bft) W-SW 247 10 min 4 UV-I 654 W/m 1,6 km/h (1 Bft)
13.08.2010 11:00 18,8 C 69 % 1016,4 hPa 0,0 mm 0,0 km/h (0 Bft) W-SW 247 10 min 4 UV-I 636 W/m 4,8 km/h (1 Bft)
13.08.2010 11:10 18,8 C 69 % 1016,5 hPa 0,0 mm 1,6 km/h (1 Bft) W 270 10 min 4 UV-I 729 W/m 6,4 km/h (2 Bft)
13.08.2010 11:20 19,3 C 69 % 1016,4 hPa 0,0 mm 1,6 km/h (1 Bft) NW 315 0 min 4 UV-I 311 W/m 8,0 km/h (2 Bft)
13.08.2010 11:30 19,2 C 70 % 1016,2 hPa 0,0 mm 1,6 km/h (1 Bft) NW 315 10 min 4 UV-I 726 W/m 6,4 km/h (2 Bft)
13.08.2010 11:40 19,1 C 69 % 1016,2 hPa 0,0 mm 1,6 km/h (1 Bft) NW 315 10 min 4 UV-I 657 W/m 8,0 km/h (2 Bft)
13.08.2010 11:50 19,3 C 66 % 1016,2 hPa 0,0 mm 1,6 km/h (1 Bft) N-NW 337 10 min 5 UV-I 777 W/m 6,4 km/h (2 Bft)
13.08.2010 12:00 20,2 C 65 % 1016,1 hPa 0,0 mm 1,6 km/h (1 Bft) NO 45 10 min 5 UV-I 738 W/m 6,4 km/h (2 Bft)
13.08.2010 12:10 21,0 C 62 % 1016,0 hPa 0,0 mm 1,6 km/h (1 Bft) NO 45 10 min 5 UV-I 833 W/m 9,7 km/h (2 Bft)
13.08.2010 12:20 20,7 C 61 % 1016,1 hPa 0,0 mm 3,2 km/h (1 Bft) W-SW 247 10 min 5 UV-I 849 W/m 9,7 km/h (2 Bft)
13.08.2010 12:30 20,3 C 62 % 1016,2 hPa 0,0 mm 0,0 km/h (0 Bft) W 270 0 min 4 UV-I 388 W/m 3,2 km/h (1 Bft)
13.08.2010 12:40 20,2 C 65 % 1016,1 hPa 0,0 mm 1,6 km/h (1 Bft) W 270 10 min 5 UV-I 944 W/m 8,0 km/h (2 Bft)
13.08.2010 12:50 20,6 C 62 % 1016,1 hPa 0,0 mm 1,6 km/h (1 Bft) W 270 0 min 4 UV-I 374 W/m 8,0 km/h (2 Bft)
13.08.2010 13:00 20,2 C 63 % 1016,2 hPa 0,0 mm 0,0 km/h (0 Bft) W 270 0 min 3 UV-I 288 W/m 1,6 km/h (1 Bft)
13.08.2010 13:10 20,8 C 61 % 1015,9 hPa 0,0 mm 0,0 km/h (0 Bft) S-SW 202 10 min 5 UV-I 485 W/m 6,4 km/h (2 Bft)
13.08.2010 13:20 21,7 C 59 % 1016,0 hPa 0,0 mm 1,6 km/h (1 Bft) O-SO 112 0 min 5 UV-I 390 W/m 8,0 km/h (2 Bft)
13.08.2010 13:30 21,3 C 59 % 1016,0 hPa 0,0 mm 1,6 km/h (1 Bft) SO 135 10 min 6 UV-I 977 W/m 8,0 km/h (2 Bft)
13.08.2010 13:40 22,6 C 60 % 1015,9 hPa 0,0 mm 3,2 km/h (1 Bft) O-SO 112 10 min 6 UV-I 904 W/m 8,0 km/h (2 Bft)
13.08.2010 13:50 22,9 C 57 % 1015,9 hPa 0,0 mm 1,6 km/h (1 Bft) O-NO 67 10 min 6 UV-I 870 W/m 6,4 km/h (2 Bft)
13.08.2010 14:00 22,7 C 57 % 1015,9 hPa 0,0 mm 1,6 km/h (1 Bft) O 90 0 min 6 UV-I 373 W/m 8,0 km/h (2 Bft)
13.08.2010 14:10 22,0 C 59 % 1015,9 hPa 0,0 mm 1,6 km/h (1 Bft) O-NO 67 0 min 3 UV-I 258 W/m 9,7 km/h (2 Bft)
13.08.2010 14:20 21,6 C 60 % 1015,8 hPa 0,0 mm 1,6 km/h (1 Bft) O-NO 67 0 min 2 UV-I 225 W/m 6,4 km/h (2 Bft)
13.08.2010 14:30 21,3 C 62 % 1015,8 hPa 0,0 mm 1,6 km/h (1 Bft) O-NO 67 0 min 2 UV-I 221 W/m 6,4 km/h (2 Bft)
13.08.2010 14:40 21,2 C 63 % 1015,8 hPa 0,0 mm 0,0 km/h (0 Bft) O-NO 67 0 min 2 UV-I 221 W/m 4,8 km/h (1 Bft)
13.08.2010 14:50 21,3 C 61 % 1015,8 hPa 0,0 mm 1,6 km/h (1 Bft) O-NO 67 0 min 2 UV-I 241 W/m 6,4 km/h (2 Bft)
13.08.2010 15:00 21,2 C 62 % 1015,7 hPa 0,0 mm 1,6 km/h (1 Bft) O-NO 67 0 min 2 UV-I 188 W/m 6,4 km/h (2 Bft)
13.08.2010 15:10 20,9 C 63 % 1015,9 hPa 0,0 mm 1,6 km/h (1 Bft) O 90 0 min 2 UV-I 179 W/m 6,4 km/h (2 Bft)
13.08.2010 15:20 20,9 C 62 % 1015,8 hPa 0,0 mm 1,6 km/h (1 Bft) O 90 0 min 2 UV-I 274 W/m 6,4 km/h (2 Bft)
13.08.2010 15:30 21,2 C 60 % 1015,9 hPa 0,0 mm 1,6 km/h (1 Bft) O 90 0 min 2 UV-I 218 W/m 8,0 km/h (2 Bft)
13.08.2010 15:40 20,7 C 62 % 1016,0 hPa 0,0 mm 3,2 km/h (1 Bft) O 90 0 min 1 UV-I 105 W/m 9,7 km/h (2 Bft)
13.08.2010 15:50 20,2 C 64 % 1016,1 hPa 0,0 mm 1,6 km/h (1 Bft) O 90 0 min 0 UV-I 51 W/m 8,0 km/h (2 Bft)
13.08.2010 16:00 19,8 C 67 % 1016,1 hPa 0,0 mm 1,6 km/h (1 Bft) O 90 0 min 0 UV-I 53 W/m 6,4 km/h (2 Bft)
13.08.2010 16:10 19,6 C 68 % 1016,2 hPa 0,0 mm 0,0 km/h (0 Bft) O-SO 112 0 min 1 UV-I 69 W/m 6,4 km/h (2 Bft)
13.08.2010 16:20 19,6 C 68 % 1016,1 hPa 0,0 mm 0,0 km/h (0 Bft) O-SO 112 0 min 1 UV-I 83 W/m 4,8 km/h (1 Bft)
13.08.2010 16:30 19,6 C 71 % 1016,1 hPa 0,0 mm 0,0 km/h (0 Bft) O-SO 112 0 min 1 UV-I 91 W/m 4,8 km/h (1 Bft)
13.08.2010 16:40 19,3 C 72 % 1016,4 hPa 0,0 mm 1,6 km/h (1 Bft) O-SO 112 0 min 1 UV-I 83 W/m 6,4 km/h (2 Bft)
13.08.2010 16:50 18,6 C 78 % 1016,3 hPa 0,0 mm 3,2 km/h (1 Bft) SO 135 0 min 1 UV-I 98 W/m 11,3 km/h (2 Bft)
13.08.2010 17:00 18,0 C 82 % 1015,9 hPa 0,3 mm 3,2 km/h (1 Bft) O 90 0 min 1 UV-I 188 W/m 11,3 km/h (2 Bft)
13.08.2010 17:10 17,9 C 82 % 1016,0 hPa 0,0 mm 1,6 km/h (1 Bft) O 90 10 min 1 UV-I 541 W/m 8,0 km/h (2 Bft)
13.08.2010 17:20 18,8 C 78 % 1016,1 hPa 0,0 mm 1,6 km/h (1 Bft) O 90 0 min 1 UV-I 179 W/m 6,4 km/h (2 Bft)
13.08.2010 17:30 18,6 C 81 % 1016,0 hPa 0,0 mm 1,6 km/h (1 Bft) O-SO 112 0 min 1 UV-I 141 W/m 9,7 km/h (2 Bft)
13.08.2010 17:40 18,5 C 80 % 1016,1 hPa 0,0 mm 1,6 km/h (1 Bft) O 90 0 min 1 UV-I 204 W/m 6,4 km/h (2 Bft)
13.08.2010 17:50 18,4 C 80 % 1016,0 hPa 0,0 mm 1,6 km/h (1 Bft) O-NO 67 10 min 1 UV-I 364 W/m 6,4 km/h (2 Bft)
13.08.2010 18:00 18,7 C 77 % 1015,9 hPa 0,0 mm 0,0 km/h (0 Bft) O-NO 67 10 min 1 UV-I 299 W/m 4,8 km/h (1 Bft)
13.08.2010 18:10 18,4 C 78 % 1015,9 hPa 0,0 mm 0,0 km/h (0 Bft) O-NO 67 10 min 1 UV-I 308 W/m 4,8 km/h (1 Bft)
13.08.2010 18:20 18,7 C 77 % 1016,0 hPa 0,0 mm 1,6 km/h (1 Bft) O 90 10 min 1 UV-I 214 W/m 8,0 km/h (2 Bft)
13.08.2010 18:30 18,8 C 76 % 1016,0 hPa 0,0 mm 0,0 km/h (0 Bft) O 90 10 min 1 UV-I 279 W/m 6,4 km/h (2 Bft)
13.08.2010 18:40 19,2 C 73 % 1016,1 hPa 0,0 mm 1,6 km/h (1 Bft) O 90 10 min 1 UV-I 387 W/m 6,4 km/h (2 Bft)
13.08.2010 18:50 19,4 C 72 % 1015,8 hPa 0,0 mm 1,7 km/h (1 Bft) O-NO 77 10 min 1 UV-I 289 W/m 6,4 km/h (2 Bft)
13.08.2010 19:00 18,9 C 72 % 1015,9 hPa 0,0 mm 1,4 km/h (1 Bft) O-NO 72 10 min 1 UV-I 173 W/m 6,4 km/h (2 Bft)
13.08.2010 19:10 18,7 C 72 % 1015,8 hPa 0,0 mm 0,2 km/h (0 Bft) O-NO 72 10 min 1 UV-I 186 W/m 3,2 km/h (1 Bft)
13.08.2010 19:20 18,7 C 72 % 1015,9 hPa 0,0 mm 0,0 km/h (0 Bft) O-NO 72 10 min 1 UV-I 193 W/m 1,6 km/h (1 Bft)
13.08.2010 19:30 19,2 C 72 % 1015,8 hPa 0,0 mm 0,3 km/h (0 Bft) O-NO 72 10 min 0 UV-I 179 W/m 4,8 km/h (1 Bft)
13.08.2010 19:40 18,9 C 74 % 1015,8 hPa 0,0 mm 1,9 km/h (1 Bft) O 80 10 min 0 UV-I 106 W/m 8,0 km/h (2 Bft)
13.08.2010 19:50 18,4 C 75 % 1015,7 hPa 0,0 mm 1,0 km/h (0 Bft) O 82 0 min 0 UV-I 50 W/m 4,8 km/h (1 Bft)
13.08.2010 20:00 18,1 C 76 % 1015,9 hPa 0,0 mm 0,2 km/h (0 Bft) O 82 0 min 0 UV-I 46 W/m 4,8 km/h (1 Bft)
13.08.2010 20:10 17,9 C 77 % 1015,9 hPa 0,0 mm 0,4 km/h (0 Bft) O 82 0 min 0 UV-I 47 W/m 4,8 km/h (1 Bft)
13.08.2010 20:20 17,7 C 77 % 1015,9 hPa 0,0 mm 0,6 km/h (0 Bft) O 82 0 min 0 UV-I 31 W/m 4,8 km/h (1 Bft)
13.08.2010 20:30 17,4 C 79 % 1016,0 hPa 0,0 mm 1,0 km/h (0 Bft) O 80 0 min 0 UV-I 18 W/m 4,8 km/h (1 Bft)
13.08.2010 20:40 17,4 C 81 % 1016,0 hPa 0,0 mm 0,5 km/h (0 Bft) O 80 0 min 0 UV-I 9 W/m 4,8 km/h (1 Bft)
13.08.2010 20:50 17,3 C 83 % 1016,0 hPa 0,0 mm 0,2 km/h (0 Bft) O 79 0 min 0 UV-I 1 W/m 3,2 km/h (1 Bft)
13.08.2010 21:00 17,0 C 84 % 1015,9 hPa 0,0 mm 0,2 km/h (0 Bft) O 80 0 min 0 UV-I 0 W/m 3,2 km/h (1 Bft)
13.08.2010 21:10 16,7 C 85 % 1016,1 hPa 0,0 mm 0,0 km/h (0 Bft) O 79 0 min 0 UV-I 0 W/m 1,6 km/h (1 Bft)
13.08.2010 21:20 16,5 C 86 % 1016,2 hPa 0,0 mm 0,0 km/h (0 Bft) O 79 0 min 0 UV-I 0 W/m 0,0 km/h (0 Bft)
13.08.2010 21:30 16,4 C 87 % 1016,4 hPa 0,0 mm 0,0 km/h (0 Bft) O 80 0 min 0 UV-I 0 W/m 1,6 km/h (1 Bft)
13.08.2010 21:40 16,4 C 87 % 1016,3 hPa 0,0 mm 0,1 km/h (0 Bft) O 80 0 min 0 UV-I 0 W/m 3,2 km/h (1 Bft)
13.08.2010 21:50 16,2 C 87 % 1016,5 hPa 0,0 mm 0,0 km/h (0 Bft) O 80 0 min 0 UV-I 0 W/m 1,6 km/h (1 Bft)
13.08.2010 22:00 16,1 C 85 % 1016,5 hPa 0,0 mm 0,1 km/h (0 Bft) O 79 0 min 0 UV-I 0 W/m 1,6 km/h (1 Bft)
13.08.2010 22:10 16,0 C 84 % 1016,6 hPa 0,0 mm 0,4 km/h (0 Bft) O 80 0 min 0 UV-I 0 W/m 4,8 km/h (1 Bft)
13.08.2010 22:20 16,0 C 83 % 1016,6 hPa 0,0 mm 0,1 km/h (0 Bft) O 80 0 min 0 UV-I 0 W/m 1,6 km/h (1 Bft)
13.08.2010 22:30 15,9 C 83 % 1016,6 hPa 0,0 mm 0,0 km/h (0 Bft) O 80 0 min 0 UV-I 0 W/m 0,0 km/h (0 Bft)
13.08.2010 22:40 15,7 C 84 % 1016,6 hPa 0,0 mm 0,1 km/h (0 Bft) O 80 0 min 0 UV-I 0 W/m 1,6 km/h (1 Bft)
13.08.2010 22:50 15,6 C 85 % 1016,6 hPa 0,0 mm 0,0 km/h (0 Bft) O 80 0 min 0 UV-I 0 W/m 0,0 km/h (0 Bft)
13.08.2010 23:00 15,5 C 85 % 1016,7 hPa 0,0 mm 0,0 km/h (0 Bft) O 80 0 min 0 UV-I 0 W/m 0,0 km/h (0 Bft)
13.08.2010 23:10 15,6 C 85 % 1016,6 hPa 0,0 mm 0,0 km/h (0 Bft) O 80 0 min 0 UV-I 0 W/m 1,6 km/h (1 Bft)
13.08.2010 23:20 15,7 C 85 % 1016,5 hPa 0,0 mm 0,0 km/h (0 Bft) O 80 0 min 0 UV-I 0 W/m 0,0 km/h (0 Bft)
13.08.2010 23:30 15,6 C 85 % 1016,5 hPa 0,0 mm 0,0 km/h (0 Bft) O 80 0 min 0 UV-I 0 W/m 0,0 km/h (0 Bft)
13.08.2010 23:40 15,6 C 85 % 1016,4 hPa 0,0 mm 0,0 km/h (0 Bft) O 80 0 min 0 UV-I 0 W/m 0,0 km/h (0 Bft)
13.08.2010 23:50 15,5 C 85 % 1016,4 hPa 0,0 mm 0,0 km/h (0 Bft) O 80 0 min 0 UV-I 0 W/m 0,0 km/h (0 Bft)
_ Min-Zeit 07:30 13:50 00:10 - 00:00 - - - - - 21:20
Minimum _ 14,2 C 57 % 1014,3 hPa - 0,0 km/h (0 Bft) - - - - - 0,0 km/h (0 Bft)
_ Max-Zeit 13:40 07:40 23:00 17:00 04:30 - - 07:50 13:40 13:30 16:50
Maximum _ 23,3 C 87 % 1016,7 hPa 0,3 mm 3,2 km/h
W (1 Bft)
- - 10 min 6 UV-I 977 W/m 11,3 km/h
O-NO (2 Bft)
Durchschnitt _ 17,4 C 76 % 1015,7 hPa #0,3 mm 0,8 km/h (0 Bft) O - #7:30 h 2 UV-I 313 W/m 4,7 km/h (1 Bft)